www.pogodaiklimat.ru

Погода и климат >> Архив погоды >> Мексика >> Четумаль


ПОГОДА в Четумале

  • Прогноз погоды в Четумале
  • Монитор погоды в Четумале

АРХИВ ПОГОДЫ в Четумале

Время (UTC), дата Ветер
(напр.,м/с)
 
Видим.   Явления Облачность Т
(С)
Тd
(С)
f
(%)
Тe
(С)
Тes
(С)
Комфортность P
(гПа)
Po
(гПа)
Тmin
(С)
Tmax
(С)
R
(мм)
R24
(мм)
S
(см)
03 14.07 В 3
{9}
8000 м 5/4 600 м
[Sc diur, vesp Ci fib]
+29.0 +25.8 83 +43 +43 опасность
перегрева
1014.1 1013.1
06 14.07 В 3
{9}
8000 м 6/6 600 м
[Sc diur, vesp]
+28.4 +25.7 85 +42 +42 опасность
перегрева
1014.7 1013.7 +27.4 +34.2
09 14.07 В 5 8000 м 9/9 600 м
[Sc diur, vesp]
+28.1 +26.1 89 +42 +42 опасность
перегрева
1013.5 1012.5
12 14.07 В 3 10 км 3/3 600 м
[Sc diur, vesp]
+28.4 +25.7 85 +42 +42 опасность
перегрева
1013.9 1012.9 +27.2 +34.2
15 14.07 В 4 10 км 5/5 600 м
[Sc diur, vesp]
+31.9 +25.7 70 +47 +51 опасность
перегрева
1015.2 1014.2
18 14.07 ЮВ 4 10 км 4/3 600 м
[Sc diur, vesp Ci fib]
+33.9 +26.3 65 +51 +61 опасность
перегрева
1015.1 1014.1 +27.2 +33.9
21 14.07 ЮВ 5 10 км 4/1 600 м
[Sc diur, vesp Ci fib]
+33.9 +25.6 62 +49 +54 опасность
перегрева
1013.3 1012.3
00 15.07 В 4 10 км 3/1 600 м
[Sc diur, vesp Ci fib]
+31.4 +23.4 63 +42 +42 опасность
перегрева
1013.8 1012.8 +27.2 +34.1
03 15.07 В 3
{9}
8000 м 3/3 600 м
[Sc diur, vesp]
+29.1 +24.7 77 +41 +41 опасность
перегрева
1015.2 1014.2
06 15.07 В 3 8000 м 1/1 600 м
[Cu hum]
+28.3 +25.2 83 +41 +41 опасность
перегрева
1014.9 1013.9 +34.1
12 15.07 В 3 10 км 9/9 600 м
[Sc diur, vesp]
+28.1 +24.5 81 +40 +40 очень
душно
1014.3 1013.3 +27.3 +34.1
15 15.07 В 4 10 км 4/4 600 м
[Sc diur, vesp]
+31.8 +24.7 66 +45 +50 опасность
перегрева
1015.2 1014.2
18 15.07 В 5 10 км 3/3 600 м
[Sc diur, vesp]
+33.8 +24.7 59 +47 +55 опасность
перегрева
1015.1 1014.1 +27.3 +33.8
21 15.07 В 4 10 км 5/3 600 м
[Sc diur, vesp Ci fib]
+34.4 +25.4 60 +49 +54 опасность
перегрева
1014.0 1013.0
00 16.07 В 4 10 км 4/1 600 м
[Sc diur, vesp Ci fib]
+31.5 +24.2 65 +43 +44 опасность
перегрева
1013.8 1012.8 +27.3 +34.4
03 16.07 В 2
{12}
8000 м зарница {гроза} 9/6 600 м
[Sc diur, vesp Ci fib]
+27.7 +23.5 78 +38 +38 очень
душно
1014.9 1013.9
06 16.07 В 4
{12}
8000 м {гроза} 10/4 600 м
[Sc diur, vesp Ci fib]
+28.4 +24.5 79 +40 +40 очень
душно
1015.7 1014.7 +27.3 +34.4
09 16.07 В 3 8000 м 9/9 600 м
[Frnb]
+28.2 +25.4 85 +41 +41 опасность
перегрева
1014.1 1013.1
12 16.07 В 3 10 км 4/4 600 м
[Sc diur, vesp]
+28.4 +25.6 85 +42 +42 опасность
перегрева
1014.7 1013.7 +26.8 +34.4
15 16.07 В 4 10 км 9/6 600 м
[Sc diur, vesp Ac trans]
+30.8 +25.7 74 +45 +47 опасность
перегрева
1016.4 1015.4
18 16.07 В 4 10 км 10/8 600 м
[Sc diur, vesp Ac trans]
+32.9 +25.4 65 +47 +49 опасность
перегрева
1016.3 1015.3 +26.8 +32.9
21 16.07 В 4 10 км 9/4 600 м
[Sc diur, vesp Ac trans Ci fib]
+32.9 +26.2 68 +49 +52 опасность
перегрева
1015.1 1014.1
00 17.07 В 4 10 км 6/1 600 м
[Sc diur, vesp Ci fib]
+30.8 +24.7 70 +44 +44 опасность
перегрева
1015.3 1014.3 +27.5 +33.9
03 17.07 В 3
{8}
8000 м 10/4 600 м
[Sc diur, vesp Cs]
+28.9 +25.1 80 +42 +42 опасность
перегрева
1016.4 1015.4
06 17.07 В 3
{8}
8000 м 10/4 600 м
[Sc diur, vesp Cs]
+28.4 +25.6 85 +42 +42 опасность
перегрева
1016.7 1015.7 +27.5 +34.3
09 17.07 В 2 8000 м ясно +27.9 +25.2 85 +40 +40 очень
душно
1015.1 1014.1
12 17.07 В 2 10 км 4/3 600 м
[Sc diur, vesp Ci fib]
+27.8 +24.5 82 +39 +39 очень
душно
1015.6 1014.6 +26.9 +34.3
15 17.07 В 3 10 км 4/4 600 м
[Sc diur, vesp]
+32.0 +25.4 68 +46 +53 опасность
перегрева
1016.9 1015.9
18 17.07 В 4 10 км 6/5 600 м
[Sc diur, vesp Ci fib]
+33.5 +24.9 61 +47 +54 опасность
перегрева
1016.7 1015.7 +26.9 +33.8
21 17.07 ЮВ 3 10 км {дождь} 8/5 600 м
[Sc Ci fib]
+32.6 +26.6 71 +50 +54 опасность
перегрева
1015.0 1014.0 3
00 18.07 В 4 10 км 9/6 600 м
[Sc Ci]
+30.9 +24.0 67 +43 +43 опасность
перегрева
1014.7 1013.7 +26.9 +34.3 3
03 18.07 В 4
{9}
8000 м 9/6 600 м
[Sc diur, vesp Ci]
+28.7 +25.1 81 +42 +42 опасность
перегрева
1015.8 1014.8
09 18.07 В 4 8000 м 1/1 600 м
[Sc diur, vesp]
+27.9 +24.7 83 +40 +40 очень
душно
1014.6 1013.6
12 18.07 В 3 10 км 3/1 600 м
[Sc diur, vesp Ci]
+27.8 +25.7 88 +41 +41 опасность
перегрева
1015.6 1014.6 +26.9 +34.3
15 18.07 В 4 10 км 4/3 600 м
[Sc diur, vesp Ci]
+31.8 +24.5 65 +44 +50 опасность
перегрева
1017.3 1016.3
18 18.07 В 5 10 км 1/1 600 м
[Sc diur, vesp]
+33.8 +23.8 56 +45 +56 опасность
перегрева
1017.2 1016.2 +26.9 +33.8
21 18.07 ЮВ 4 10 км 9/5 600 м
[Sc diur, vesp Ac trans Ci]
+32.8 +24.1 60 +45 +47 опасность
перегрева
1015.0 1014.0
00 19.07 ЮВ 3 10 км 5/1 600 м
[Sc diur, vesp Ac trans Ci]
+30.6 +24.5 70 +43 +43 опасность
перегрева
1014.6 1013.6 +26.9 +34.1
03 19.07 В 3
{7}
8000 м 4/1 600 м
[Cu hum Ci fib]
+28.7 +24.5 78 +41 +41 опасность
перегрева
1015.9 1014.9
06 19.07 В 3
{7}
8000 м 8/8 600 м
[Sc diur, vesp]
+28.1 +25.0 83 +40 +40 очень
душно
1015.5 1014.5 +26.9 +34.1
09 19.07 В 2 8000 м ясно +27.9 +25.2 85 +40 +40 очень
душно
1014.1 1013.1
12 19.07 СВ 2 10 км 1/1 600 м
[Sc diur, vesp]
+26.8 +24.5 87 +38 +38 очень
душно
1014.6 1013.6 +25.9 +34.1
15 19.07 В 4 10 км 3/3 600 м
[Sc diur, vesp]
+31.3 +25.2 70 +45 +51 опасность
перегрева
1015.9 1014.9
18 19.07 ЮВ 4 10 км 3/3 600 м
[Sc diur, vesp]
+34.5 +23.9 54 +46 +56 опасность
перегрева
1015.6 1014.6 +25.9 +34.8
21 19.07 ЮВ 5 10 км 4/1 600 м
[Sc diur, vesp Ci fib]
+33.8 +24.9 60 +47 +52 опасность
перегрева
1013.8 1012.8
00 20.07 В 4 10 км 5/1 600 м
[Sc diur, vesp Ci fib]
+31.3 +23.8 64 +42 +43 опасность
перегрева
1014.1 1013.1 +25.9 +34.8
03 20.07 В 3 8000 м 1/1 600 м
[Sc diur, vesp]
+29.1 +25.0 79 +42 +42 опасность
перегрева
1015.3 1014.3
09 20.07 В 3 8000 м 8/3 600 м
[Sc diur, vesp Ci]
+27.8 +25.1 85 +40 +40 очень
душно
1013.2 1012.2
12 20.07 В 3 10 км 10/3 600 м
[Sc diur, vesp Cs]
+28.0 +25.0 84 +40 +41 очень
душно
1013.8 1012.8 +26.8
15 20.07 В 3 10 км 9/5 600 м
[Sc diur, vesp Ci]
+31.2 +26.0 74 +47 +51 опасность
перегрева
1015.3 1014.3
18 20.07 Ю 2 10 км 10/4 600 м
[Sc diur, vesp Ac trans]
+28.8 +24.8 79 +41 +46 опасность
перегрева
1015.5 1014.5 +26.8 +31.8 0.2
21 20.07 В 4 10 км 9/9 600 м
[Frnb]
+31.2 +25.6 72 +46 +47 опасность
перегрева
1013.8 1012.8

 

Местоположение метеостанции Четумаль (Мексика): широта 18.48 долгота -88.30 высота над уровнем моря 7 м.

В архиве по умолчанию представлена погода в Четумале за последнюю неделю. Архивные данные за месяц целиком и за предыдущие месяцы, начиная с января 2011 года, Вы можете получить, выбрав интересующий диапазон дат из раскрывающегося списка и нажав кнопку "Ввод!".


*Определитесь, кто Вы:
робот инопланетянин человек

Внимание! Время в таблицах - всемирное. Для получения местного времени необходимо прибавить поправку, которая равна -6 ч.

Смотрите также архив погоды в соседних городах и на ближайших метеорологических станциях:

Погода в Белизе (Белиз) (106 км)
Погода в Фелипе-Каррильо-Пуэрто (Мексика) (142 км)
Погода во Флоресе (Гватемала) (241 км)
Погода в Вальядолиде (Мексика) (245 км)
Погода в Кампече (Мексика) (281 км)
Погода на Роатане (Гондурас) (306 км)
Погода в Пуэрто-Барриосе (Гватемала) (309 км)
Погода в Мериде (Мексика) (312 км)
Погода в Мериде 2 (Мексика) (316 км)
Погода в Теле (Гондурас) (319 км)

Пояснения к столбцам:

Ветер - указаны скорость ветра в м/с - средняя за 10 мин, порывы в срок и между сроками (в фигурных скобках) и направление, откуда дует ветер: С - северный, СВ - северо-восточный, В - восточный, ЮВ - юго-восточный, Ю - южный, ЮЗ - юго-западный, З - западный, СЗ - северо-западный.
Видимость - горизонтальная дальность видимости в метрах или километрах. При видимости от 1 до 10 км при отсутствии осадков обычно наблюдается дымка, при ухудшении видимости до 1 км и менее - туман. В сухую погоду видимость может ухудшаться дымом, пылью или мглою.
Явления - указаны атмосферные явления, наблюдавшиеся в срок или в последний час перед сроком; фигурными скобками обозначены явления, наблюдавшиеся между сроками (за 1-3 часа до срока); квадратными скобками обозначены град или гололедные отложения с указанием их диаметра в мм.
Облачность - указаны через наклонную черту общая и нижняя облачность в баллах и высота нижней границы облаков в метрах; квадратными скобками обозначены формы облаков: Ci - перистые, Cs - перисто-слоистые, Cc - перисто-кучевые, Ac - высококучевые, As - высокослоистые, Sc - слоисто-кучевые, Ns - слоисто-дождевые, Cu - кучевые, Cb - кучево-дождевые. Подробнее классификацию облаков см. в Атласе облаков (PDF).
T - Температура воздуха - температура, измеренная на высоте 2 м над землей.
Td - Температура точки росы - температура, при понижении до которой содержащийся в воздухе водяной пар достигнет насыщения.
f - Относительная влажность воздуха - влажноcть воздуха, измеренная на высоте 2 м над землей.
Te - Эффективная температура - температура, которую ощущает одетый по сезону человек в тени. Характеристика душности погоды. При расчете учитывается влияние влажности воздуха и скорости ветра на теплоощущения человека.
Tes - Эффективная температура на солнце - температура, которую ощущает человек, с поправкой на солнечный нагрев. Характеристика знойности погоды. Зависит от высоты солнца над горизонтом, облачности и скорости ветра. Ночью, в пасмурную погоду, а также при ветре 12 м/с и более поправка равна нулю.
P - Атмосферное давление - приведенное к уровню моря атмосферное давление.
Po - Атмосферное давление - измеренное на уровне метеостанции атмосферное давление.
Tmin - Минимальная температура - минимум температуры воздуха на высоте 2 м над землей.
Tmax - Максимальная температура - максимум температуры воздуха на высоте 2 м над землей.
R - Количество осадков - Количество выпавших осадков за период времени, мм. При наведении курсора мыши на число - период времени, за который выпало указанное количество осадков.
R24 - Количество осадков - Количество выпавших осадков за 24 часа, мм.
S - Снежный покров - Высота снежного покрова, см. При наведении курсора мыши на число - состояние снежного покрова и степень покрытия местности в баллах.